| time (UTC) | temp F | wind direction | speed MPH | gust MPH | rain 1hr in | rain 24hr in | rain mn in | humidity % | barometer mb |
| 20260507153539 | 60 | 236 | 6.0 | 14.0 | 0.00 | 0.00 | 0.00 | 56 | 1017.5 |
| 20260507153057 | 59 | 252 | 7.0 | 14.0 | 0.00 | 0.00 | 0.00 | 55 | 1017.5 |
| 20260507152540 | 59 | 216 | 6.0 | 13.0 | 0.00 | 0.00 | 0.00 | 57 | 1017.5 |
| 20260507152040 | 58 | 234 | 6.0 | 13.0 | 0.00 | 0.00 | 0.00 | 57 | 1017.5 |
| 20260507151543 | 58 | 161 | 6.0 | 13.0 | 0.00 | 0.00 | 0.00 | 58 | 1017.7 |
| 20260507151039 | 58 | 193 | 7.0 | 13.0 | 0.00 | 0.00 | 0.00 | 58 | 1017.8 |
| 20260507150540 | 58 | 271 | 6.0 | 12.0 | 0.00 | 0.00 | 0.00 | 60 | 1017.8 |
| 20260507150055 | 57 | 275 | 5.0 | 12.0 | 0.00 | 0.00 | 0.00 | 61 | 1017.8 |
| 20260507145540 | 57 | 247 | 4.0 | 13.0 | 0.00 | 0.00 | 0.00 | 62 | 1017.9 |
| 20260507145043 | 56 | 250 | 4.0 | 13.0 | 0.00 | 0.00 | 0.00 | 64 | 1018.0 |
| 20260507144551 | 56 | 294 | 4.0 | 13.0 | 0.00 | 0.00 | 0.00 | 63 | 1018.0 |
| 20260507144043 | 56 | 319 | 6.0 | 12.0 | 0.00 | 0.00 | 0.00 | 64 | 1018.1 |
| 20260507143539 | 56 | 248 | 4.0 | 12.0 | 0.00 | 0.00 | 0.00 | 66 | 1018.1 |
| 20260507143051 | 55 | 225 | 3.0 | 12.0 | 0.00 | 0.00 | 0.00 | 67 | 1018.1 |
| 20260507142540 | 55 | 288 | 3.0 | 11.0 | 0.00 | 0.00 | 0.00 | 67 | 1018.2 |
| 20260507142040 | 54 | 275 | 4.0 | 11.0 | 0.00 | 0.00 | 0.00 | 68 | 1018.1 |
| 20260507141559 | 54 | 252 | 6.0 | 11.0 | 0.00 | 0.00 | 0.00 | 68 | 1018.2 |
| 20260507141044 | 54 | 282 | 4.0 | 12.0 | 0.00 | 0.00 | 0.00 | 70 | 1018.2 |
| 20260507140540 | 53 | 268 | 4.0 | 12.0 | 0.00 | 0.00 | 0.00 | 70 | 1018.3 |
| 20260507140051 | 53 | 265 | 7.0 | 12.0 | 0.00 | 0.00 | 0.00 | 72 | 1018.3 |
| 20260507135540 | 53 | 259 | 5.0 | 10.0 | 0.00 | 0.00 | 0.00 | 74 | 1018.5 |
| 20260507135040 | 52 | 236 | 3.0 | 12.0 | 0.00 | 0.00 | 0.00 | 76 | 1018.4 |
| 20260507134545 | 51 | 232 | 3.0 | 12.0 | 0.00 | 0.00 | 0.00 | 78 | 1018.5 |
| 20260507134039 | 51 | 236 | 3.0 | 11.0 | 0.00 | 0.00 | 0.00 | 80 | 1018.5 |
| 20260507133540 | 50 | 319 | 5.0 | 10.0 | 0.00 | 0.00 | 0.00 | 82 | 1018.5 |
| 20260507133044 | 50 | 246 | 3.0 | 8.0 | 0.00 | 0.00 | 0.00 | 84 | 1018.5 |
| 20260507132539 | 49 | 265 | 2.0 | 7.0 | 0.00 | 0.00 | 0.00 | 86 | 1018.5 |
| 20260507132039 | 49 | 9 | 1.0 | 6.0 | 0.00 | 0.00 | 0.00 | 87 | 1018.5 |
| 20260507131542 | 48 | 298 | 2.0 | 4.0 | 0.00 | 0.00 | 0.00 | 87 | 1018.6 |
| 20260507131043 | 47 | 280 | 1.0 | 4.0 | 0.00 | 0.00 | 0.00 | 87 | 1018.6 |
| 20260507130539 | 47 | 265 | 1.0 | 4.0 | 0.00 | 0.00 | 0.00 | 88 | 1018.6 |
| 20260507130046 | 47 | 227 | 1.0 | 4.0 | 0.00 | 0.00 | 0.00 | 88 | 1018.6 |
| 20260507125540 | 46 | 245 | 1.0 | 4.0 | 0.00 | 0.00 | 0.00 | 88 | 1018.6 |
| 20260507125040 | 46 | 259 | 1.0 | 3.0 | 0.00 | 0.00 | 0.00 | 88 | 1018.5 |
| 20260507124543 | 45 | 178 | 1.0 | 3.0 | 0.00 | 0.00 | 0.00 | 88 | 1018.5 |
| 20260507124039 | 45 | 0 | 0.0 | 2.0 | 0.00 | 0.00 | 0.00 | 88 | 1018.4 |
| 20260507123540 | 44 | 0 | 0.0 | 2.0 | 0.00 | 0.00 | 0.00 | 88 | 1018.3 |
| 20260507123045 | 44 | 212 | 0.0 | 2.0 | 0.00 | 0.00 | 0.00 | 88 | 1018.3 |
| 20260507122539 | 43 | 0 | 0.0 | 2.0 | 0.00 | 0.00 | 0.00 | 87 | 1018.3 |
| 20260507122039 | 43 | 178 | 0.0 | 2.0 | 0.00 | 0.00 | 0.00 | 87 | 1018.4 |
| 20260507121545 | 43 | 178 | 0.0 | 2.0 | 0.00 | 0.00 | 0.00 | 87 | 1018.5 |
| 20260507121040 | 42 | 162 | 0.0 | 2.0 | 0.00 | 0.00 | 0.00 | 86 | 1018.4 |
| 20260507120539 | 42 | 0 | 0.0 | 2.0 | 0.00 | 0.00 | 0.00 | 86 | 1018.3 |
| 20260507120100 | 42 | 325 | 0.0 | 2.0 | 0.00 | 0.00 | 0.00 | 86 | 1018.4 |
| 20260507115539 | 42 | 265 | 0.0 | 1.0 | 0.00 | 0.00 | 0.00 | 86 | 1018.2 |
| 20260507115043 | 42 | 0 | 0.0 | 1.0 | 0.00 | 0.00 | 0.00 | 85 | 1018.1 |
| 20260507114547 | 42 | 205 | 0.0 | 1.0 | 0.00 | 0.00 | 0.00 | 85 | 1018.1 |
| 20260507114040 | 42 | 0 | 0.0 | 1.0 | 0.00 | 0.00 | 0.00 | 85 | 1018.0 |
| 20260507113540 | 42 | 0 | 0.0 | 1.0 | 0.00 | 0.00 | 0.00 | 85 | 1018.0 |
| 20260507113051 | 42 | 0 | 0.0 | 1.0 | 0.00 | 0.00 | 0.00 | 84 | 1018.0 |
| 20260507112540 | 43 | 0 | 0.0 | 1.0 | 0.00 | 0.00 | 0.00 | 84 | 1018.0 |
| 20260507112040 | 43 | 0 | 0.0 | 1.0 | 0.00 | 0.00 | 0.00 | 84 | 1018.0 |
| 20260507111549 | 43 | 0 | 0.0 | 1.0 | 0.00 | 0.00 | 0.00 | 84 | 1018.0 |
| 20260507111039 | 43 | 0 | 0.0 | 1.0 | 0.00 | 0.00 | 0.00 | 84 | 1018.0 |
| 20260507110540 | 43 | 0 | 0.0 | 1.0 | 0.00 | 0.00 | 0.00 | 84 | 1018.0 |
| 20260507110059 | 43 | 51 | 0.0 | 1.0 | 0.00 | 0.00 | 0.00 | 83 | 1018.0 |
| 20260507105539 | 43 | 0 | 0.0 | 1.0 | 0.00 | 0.00 | 0.00 | 83 | 1018.0 |
| 20260507105039 | 43 | 0 | 0.0 | 1.0 | 0.00 | 0.00 | 0.00 | 83 | 1018.0 |
| 20260507104544 | 43 | 178 | 0.0 | 1.0 | 0.00 | 0.00 | 0.00 | 82 | 1018.0 |
| 20260507104039 | 43 | 0 | 0.0 | 1.0 | 0.00 | 0.00 | 0.00 | 82 | 1018.0 |
| 20260507103539 | 43 | 0 | 0.0 | 1.0 | 0.00 | 0.00 | 0.00 | 82 | 1018.1 |
| 20260507103048 | 43 | 291 | 0.0 | 1.0 | 0.00 | 0.00 | 0.00 | 81 | 1018.1 |
| 20260507102539 | 44 | 0 | 0.0 | 1.0 | 0.00 | 0.00 | 0.00 | 81 | 1018.2 |
| 20260507102042 | 44 | 0 | 0.0 | 2.0 | 0.00 | 0.00 | 0.00 | 81 | 1018.3 |
| 20260507101559 | 44 | 0 | 0.0 | 2.0 | 0.00 | 0.00 | 0.00 | 81 | 1018.4 |
| 20260507101039 | 44 | 9 | 0.0 | 1.0 | 0.00 | 0.00 | 0.00 | 80 | 1018.5 |
| 20260507100542 | 44 | 9 | 0.0 | 1.0 | 0.00 | 0.00 | 0.00 | 80 | 1018.3 |
| 20260507100049 | 45 | 0 | 0.0 | 1.0 | 0.00 | 0.00 | 0.00 | 79 | 1018.4 |
| 20260507095540 | 45 | 0 | 0.0 | 1.0 | 0.00 | 0.00 | 0.00 | 79 | 1018.5 |
| 20260507095039 | 45 | 0 | 0.0 | 1.0 | 0.00 | 0.00 | 0.00 | 79 | 1018.4 |
| 20260507094550 | 45 | 0 | 0.0 | 1.0 | 0.00 | 0.00 | 0.00 | 78 | 1018.5 |
| 20260507094039 | 46 | 0 | 0.0 | 1.0 | 0.00 | 0.00 | 0.00 | 78 | 1018.5 |
| 20260507093539 | 46 | 0 | 0.0 | 1.0 | 0.00 | 0.00 | 0.00 | 78 | 1018.4 |
| 20260507093050 | 46 | 0 | 0.0 | 1.0 | 0.00 | 0.00 | 0.00 | 78 | 1018.3 |
| 20260507092539 | 46 | 0 | 0.0 | 1.0 | 0.00 | 0.00 | 0.00 | 78 | 1018.5 |
| 20260507092042 | 47 | 0 | 0.0 | 1.0 | 0.00 | 0.00 | 0.00 | 78 | 1018.5 |
| 20260507091549 | 47 | 0 | 0.0 | 1.0 | 0.00 | 0.00 | 0.00 | 78 | 1018.5 |
| 20260507091039 | 47 | 0 | 0.0 | 1.0 | 0.00 | 0.00 | 0.00 | 78 | 1018.5 |
| 20260507090541 | 47 | 0 | 0.0 | 1.0 | 0.00 | 0.00 | 0.00 | 78 | 1018.4 |
| 20260507090055 | 48 | 0 | 0.0 | 2.0 | 0.00 | 0.00 | 0.00 | 78 | 1018.5 |
| 20260507085541 | 48 | 239 | 0.0 | 2.0 | 0.00 | 0.01 | 0.00 | 78 | 1018.5 |
| 20260507085043 | 48 | 232 | 0.0 | 2.0 | 0.00 | 0.01 | 0.00 | 78 | 1018.4 |
| 20260507084551 | 48 | 221 | 0.0 | 2.0 | 0.00 | 0.01 | 0.00 | 78 | 1018.4 |
| 20260507084040 | 48 | 221 | 0.0 | 2.0 | 0.00 | 0.01 | 0.00 | 79 | 1018.4 |
| 20260507083539 | 48 | 0 | 0.0 | 2.0 | 0.00 | 0.01 | 0.00 | 79 | 1018.5 |
| 20260507083049 | 48 | 0 | 0.0 | 2.0 | 0.00 | 0.01 | 0.00 | 79 | 1018.5 |
| 20260507082539 | 48 | 239 | 1.0 | 2.0 | 0.00 | 0.01 | 0.00 | 79 | 1018.5 |
| 20260507082039 | 48 | 250 | 1.0 | 2.0 | 0.00 | 0.01 | 0.00 | 79 | 1018.7 |
| 20260507081551 | 48 | 0 | 0.0 | 1.0 | 0.00 | 0.01 | 0.00 | 79 | 1018.6 |
| 20260507081040 | 48 | 0 | 0.0 | 1.0 | 0.00 | 0.01 | 0.00 | 79 | 1018.6 |
| 20260507080540 | 48 | 0 | 0.0 | 1.0 | 0.00 | 0.01 | 0.00 | 79 | 1018.6 |
| 20260507080054 | 48 | 0 | 0.0 | 2.0 | 0.00 | 0.01 | 0.00 | 79 | 1018.7 |
| 20260507075539 | 48 | 0 | 0.0 | 2.0 | 0.00 | 0.01 | 0.00 | 79 | 1018.8 |
| 20260507075040 | 48 | 178 | 0.0 | 2.0 | 0.00 | 0.01 | 0.00 | 79 | 1018.8 |
| 20260507074553 | 48 | 0 | 0.0 | 2.0 | 0.00 | 0.01 | 0.00 | 79 | 1018.8 |
| 20260507074039 | 48 | 0 | 0.0 | 2.0 | 0.00 | 0.01 | 0.00 | 79 | 1018.9 |
| 20260507073540 | 48 | 221 | 0.0 | 2.0 | 0.00 | 0.01 | 0.00 | 79 | 1018.8 |
| 20260507073059 | 48 | 178 | 0.0 | 1.0 | 0.00 | 0.01 | 0.00 | 79 | 1018.9 |
| 20260507072540 | 48 | 162 | 0.0 | 2.0 | 0.00 | 0.01 | 0.00 | 79 | 1018.9 |
| 20260507072039 | 48 | 178 | 0.0 | 2.0 | 0.00 | 0.01 | 0.00 | 79 | 1019.0 |
| 20260507071548 | 48 | 0 | 0.0 | 1.0 | 0.00 | 0.01 | 0.00 | 79 | 1019.1 |
| 20260507071039 | 48 | 265 | 0.0 | 1.0 | 0.00 | 0.01 | 0.00 | 80 | 1019.1 |
| 20260507070539 | 48 | 0 | 0.0 | 2.0 | 0.00 | 0.01 | 0.00 | 80 | 1019.1 |
| 20260507070047 | 48 | 0 | 0.0 | 2.0 | 0.00 | 0.01 | 0.00 | 80 | 1019.1 |
| 20260507065539 | 48 | 334 | 1.0 | 2.0 | 0.00 | 0.01 | 0.00 | 80 | 1019.2 |
| 20260507065039 | 48 | 319 | 0.0 | 3.0 | 0.00 | 0.01 | 0.00 | 80 | 1019.3 |
| 20260507064605 | 48 | 9 | 0.0 | 3.0 | 0.00 | 0.01 | 0.00 | 80 | 1019.4 |
| 20260507064039 | 48 | 205 | 1.0 | 3.0 | 0.00 | 0.01 | 0.00 | 80 | 1019.3 |
| 20260507063538 | 48 | 205 | 0.0 | 2.0 | 0.00 | 0.01 | 0.00 | 80 | 1019.2 |
| 20260507063057 | 47 | 205 | 0.0 | 2.0 | 0.00 | 0.01 | 0.00 | 80 | 1019.1 |
| 20260507062539 | 47 | 178 | 0.0 | 2.0 | 0.00 | 0.01 | 0.00 | 80 | 1019.2 |
| 20260507062040 | 47 | 221 | 0.0 | 2.0 | 0.00 | 0.01 | 0.00 | 80 | 1019.2 |
| 20260507061545 | 47 | 178 | 0.0 | 2.0 | 0.00 | 0.01 | 0.00 | 80 | 1019.2 |
| 20260507061039 | 47 | 239 | 0.0 | 2.0 | 0.00 | 0.01 | 0.00 | 80 | 1019.3 |
| 20260507060540 | 47 | 250 | 0.0 | 2.0 | 0.00 | 0.01 | 0.00 | 79 | 1019.3 |
| 20260507060052 | 47 | 221 | 0.0 | 2.0 | 0.00 | 0.01 | 0.00 | 79 | 1019.1 |
| 20260507055540 | 47 | 0 | 0.0 | 2.0 | 0.00 | 0.01 | 0.00 | 79 | 1019.3 |
| 20260507055040 | 47 | 9 | 0.0 | 2.0 | 0.00 | 0.01 | 0.00 | 79 | 1019.6 |
| 20260507054550 | 47 | 0 | 0.0 | 1.0 | 0.00 | 0.01 | 0.00 | 79 | 1019.5 |
| 20260507054041 | 47 | 221 | 0.0 | 2.0 | 0.00 | 0.01 | 0.00 | 78 | 1019.5 |
| 20260507053541 | 47 | 196 | 0.0 | 2.0 | 0.00 | 0.01 | 0.00 | 78 | 1019.6 |
| 20260507053050 | 47 | 0 | 0.0 | 2.0 | 0.00 | 0.01 | 0.00 | 77 | 1019.5 |
| 20260507052541 | 47 | 0 | 0.0 | 1.0 | 0.00 | 0.01 | 0.00 | 76 | 1019.3 |
| 20260507052041 | 47 | 0 | 0.0 | 1.0 | 0.00 | 0.01 | 0.00 | 75 | 1019.3 |
| 20260507051545 | 47 | 0 | 0.0 | 1.0 | 0.00 | 0.01 | 0.00 | 75 | 1019.3 |
| 20260507051044 | 47 | 111 | 0.0 | 1.0 | 0.00 | 0.01 | 0.00 | 74 | 1019.2 |
| 20260507050540 | 48 | 0 | 0.0 | 1.0 | 0.00 | 0.01 | 0.00 | 74 | 1019.4 |
| 20260507050047 | 48 | 0 | 0.0 | 1.0 | 0.00 | 0.01 | 0.00 | 73 | 1019.3 |
| 20260507045542 | 48 | 0 | 0.0 | 1.0 | 0.00 | 0.01 | 0.01 | 73 | 1019.2 |
| 20260507045041 | 48 | 0 | 0.0 | 1.0 | 0.00 | 0.01 | 0.01 | 72 | 1019.2 |
| 20260507044554 | 49 | 0 | 0.0 | 1.0 | 0.00 | 0.01 | 0.01 | 73 | 1019.2 |
| 20260507044040 | 49 | 0 | 0.0 | 1.0 | 0.00 | 0.01 | 0.01 | 72 | 1019.2 |
| 20260507043540 | 49 | 0 | 0.0 | 1.0 | 0.00 | 0.01 | 0.01 | 71 | 1019.1 |
| 20260507043052 | 50 | 0 | 0.0 | 2.0 | 0.00 | 0.01 | 0.01 | 71 | 1019.1 |
| 20260507042542 | 50 | 51 | 0.0 | 2.0 | 0.00 | 0.01 | 0.01 | 71 | 1019.2 |
| 20260507042041 | 50 | 0 | 0.0 | 2.0 | 0.00 | 0.01 | 0.01 | 70 | 1019.1 |
| 20260507041558 | 50 | 0 | 0.0 | 1.0 | 0.00 | 0.01 | 0.01 | 69 | 1019.1 |
| 20260507041044 | 51 | 0 | 0.0 | 1.0 | 0.00 | 0.01 | 0.01 | 68 | 1019.1 |
| 20260507040543 | 51 | 0 | 0.0 | 1.0 | 0.00 | 0.01 | 0.01 | 68 | 1018.8 |
| 20260507040105 | 51 | 309 | 0.0 | 1.0 | 0.00 | 0.01 | 0.01 | 67 | 1019.0 |
| 20260507035543 | 51 | 0 | 0.0 | 2.0 | 0.00 | 0.01 | 0.01 | 67 | 1019.1 |
| 20260507035041 | 51 | 0 | 0.0 | 2.0 | 0.00 | 0.01 | 0.01 | 68 | 1019.2 |
| 20260507034610 | 52 | 250 | 1.0 | 2.0 | 0.00 | 0.01 | 0.01 | 67 | 1019.2 |
| 20260507034041 | 52 | 265 | 0.0 | 2.0 | 0.00 | 0.01 | 0.01 | 66 | 1019.2 |
| 20260507033541 | 52 | 250 | 1.0 | 4.0 | 0.00 | 0.01 | 0.01 | 65 | 1019.3 |
| 20260507033105 | 53 | 0 | 0.0 | 4.0 | 0.00 | 0.01 | 0.01 | 64 | 1019.1 |
| 20260507032544 | 53 | 61 | 1.0 | 4.0 | 0.00 | 0.01 | 0.01 | 64 | 1019.0 |
| 20260507032040 | 53 | 0 | 0.0 | 1.0 | 0.00 | 0.01 | 0.01 | 63 | 1018.9 |
| 20260507031551 | 53 | 0 | 0.0 | 1.0 | 0.00 | 0.01 | 0.01 | 64 | 1018.9 |
| 20260507031040 | 54 | 0 | 0.0 | 1.0 | 0.00 | 0.01 | 0.01 | 63 | 1019.1 |
| 20260507030545 | 54 | 0 | 0.0 | 1.0 | 0.00 | 0.01 | 0.01 | 62 | 1018.9 |
| 20260507030051 | 54 | 0 | 0.0 | 1.0 | 0.00 | 0.01 | 0.01 | 61 | 1019.0 |
| 20260507025542 | 54 | 0 | 0.0 | 1.0 | 0.00 | 0.01 | 0.01 | 61 | 1019.0 |
| 20260507025040 | 54 | 0 | 0.0 | 2.0 | 0.00 | 0.01 | 0.01 | 61 | 1018.9 |
| 20260507024557 | 55 | 0 | 0.0 | 2.0 | 0.00 | 0.01 | 0.01 | 61 | 1018.9 |
| 20260507024043 | 55 | 0 | 0.0 | 2.0 | 0.00 | 0.01 | 0.01 | 59 | 1018.9 |
| 20260507023545 | 55 | 0 | 0.0 | 2.0 | 0.00 | 0.01 | 0.01 | 59 | 1018.8 |
| 20260507023047 | 55 | 0 | 0.0 | 2.0 | 0.00 | 0.01 | 0.01 | 59 | 1018.7 |
| 20260507022541 | 56 | 309 | 0.0 | 1.0 | 0.00 | 0.01 | 0.01 | 59 | 1018.7 |
| 20260507022041 | 56 | 0 | 0.0 | 1.0 | 0.00 | 0.01 | 0.01 | 59 | 1018.6 |
| 20260507021558 | 56 | 0 | 0.0 | 2.0 | 0.00 | 0.01 | 0.01 | 58 | 1018.6 |
| 20260507021044 | 56 | 0 | 0.0 | 2.0 | 0.00 | 0.01 | 0.01 | 58 | 1018.7 |
| 20260507020541 | 56 | 265 | 0.0 | 2.0 | 0.00 | 0.01 | 0.01 | 57 | 1018.6 |
| 20260507020057 | 56 | 298 | 1.0 | 2.0 | 0.00 | 0.01 | 0.01 | 55 | 1018.5 |
| 20260507015543 | 56 | 292 | 1.0 | 2.0 | 0.00 | 0.01 | 0.01 | 56 | 1018.3 |
| 20260507015041 | 57 | 221 | 0.0 | 3.0 | 0.00 | 0.01 | 0.01 | 53 | 1018.2 |
| 20260507014554 | 57 | 22 | 1.0 | 3.0 | 0.00 | 0.01 | 0.01 | 52 | 1018.1 |
| 20260507014040 | 57 | 22 | 1.0 | 3.0 | 0.00 | 0.01 | 0.01 | 51 | 1018.1 |
| 20260507013540 | 57 | 0 | 2.0 | 4.0 | 0.00 | 0.01 | 0.01 | 51 | 1017.9 |
| 20260507013103 | 57 | 26 | 1.0 | 5.0 | 0.00 | 0.01 | 0.01 | 51 | 1017.9 |
| 20260507012542 | 57 | 15 | 2.0 | 5.0 | 0.00 | 0.01 | 0.01 | 51 | 1017.9 |
| 20260507012041 | 57 | 15 | 2.0 | 5.0 | 0.00 | 0.01 | 0.01 | 50 | 1017.8 |
| 20260507011544 | 57 | 20 | 3.0 | 5.0 | 0.00 | 0.01 | 0.01 | 50 | 1017.8 |
| 20260507011044 | 57 | 15 | 3.0 | 7.0 | 0.00 | 0.01 | 0.01 | 50 | 1017.8 |
| 20260507010540 | 57 | 22 | 4.0 | 7.0 | 0.00 | 0.01 | 0.01 | 49 | 1017.7 |
| 20260507010051 | 57 | 25 | 3.0 | 6.0 | 0.00 | 0.01 | 0.01 | 49 | 1017.8 |
| 20260507005541 | 58 | 13 | 3.0 | 8.0 | 0.00 | 0.01 | 0.01 | 48 | 1017.8 |
| 20260507005040 | 58 | 30 | 2.0 | 8.0 | 0.00 | 0.01 | 0.01 | 48 | 1017.9 |
| 20260507004551 | 58 | 24 | 4.0 | 8.0 | 0.00 | 0.01 | 0.01 | 48 | 1017.8 |
| 20260507004040 | 58 | 36 | 4.0 | 9.0 | 0.00 | 0.01 | 0.01 | 47 | 1017.8 |
| 20260507003542 | 58 | 38 | 5.0 | 9.0 | 0.00 | 0.01 | 0.01 | 47 | 1017.8 |
| 20260507003051 | 58 | 40 | 4.0 | 9.0 | 0.00 | 0.01 | 0.01 | 47 | 1017.8 |
| 20260507002540 | 58 | 32 | 5.0 | 9.0 | 0.00 | 0.01 | 0.01 | 46 | 1017.8 |
| 20260507002041 | 58 | 20 | 5.0 | 9.0 | 0.00 | 0.01 | 0.01 | 46 | 1017.9 |
| 20260507001604 | 58 | 23 | 4.0 | 10.0 | 0.00 | 0.01 | 0.01 | 46 | 1017.8 |
| 20260507001040 | 58 | 22 | 5.0 | 11.0 | 0.00 | 0.01 | 0.01 | 45 | 1017.7 |
| 20260507000540 | 59 | 344 | 5.0 | 11.0 | 0.00 | 0.01 | 0.01 | 46 | 1017.7 |
| 20260507000046 | 59 | 346 | 6.0 | 11.0 | 0.00 | 0.01 | 0.01 | 45 | 1017.7 |
| 20260506235541 | 59 | 28 | 4.0 | 9.0 | 0.00 | 0.01 | 0.01 | 46 | 1017.6 |
| 20260506235040 | 59 | 337 | 4.0 | 9.0 | 0.00 | 0.01 | 0.01 | 46 | 1017.5 |
| 20260506234557 | 59 | 330 | 3.0 | 12.0 | 0.00 | 0.01 | 0.01 | 45 | 1017.6 |
| 20260506234040 | 59 | 29 | 5.0 | 12.0 | 0.00 | 0.01 | 0.01 | 44 | 1017.5 |
| 20260506233541 | 59 | 9 | 7.0 | 12.0 | 0.00 | 0.01 | 0.01 | 44 | 1017.4 |
| 20260506233045 | 59 | 18 | 6.0 | 12.0 | 0.00 | 0.01 | 0.01 | 44 | 1017.5 |
| 20260506232540 | 59 | 30 | 5.0 | 9.0 | 0.00 | 0.01 | 0.01 | 45 | 1017.4 |
| 20260506232041 | 59 | 347 | 4.0 | 11.0 | 0.00 | 0.01 | 0.01 | 45 | 1017.4 |
| 20260506231545 | 59 | 11 | 6.0 | 11.0 | 0.00 | 0.01 | 0.01 | 44 | 1017.5 |
| 20260506231041 | 60 | 36 | 5.0 | 11.0 | 0.00 | 0.01 | 0.01 | 44 | 1017.4 |
| 20260506230540 | 59 | 20 | 5.0 | 11.0 | 0.00 | 0.01 | 0.01 | 44 | 1017.3 |
| 20260506230052 | 60 | 41 | 6.0 | 10.0 | 0.00 | 0.01 | 0.01 | 44 | 1017.4 |
| 20260506225543 | 60 | 19 | 4.0 | 13.0 | 0.00 | 0.01 | 0.01 | 44 | 1017.5 |
| 20260506225041 | 60 | 342 | 6.0 | 13.0 | 0.00 | 0.01 | 0.01 | 44 | 1017.4 |
| 20260506224605 | 60 | 53 | 9.0 | 13.0 | 0.00 | 0.01 | 0.01 | 43 | 1017.3 |
| 20260506224040 | 61 | 25 | 3.0 | 11.0 | 0.00 | 0.01 | 0.01 | 43 | 1017.2 |
| 20260506223540 | 61 | 23 | 5.0 | 13.0 | 0.00 | 0.01 | 0.01 | 42 | 1017.2 |
| 20260506223054 | 61 | 36 | 6.0 | 13.0 | 0.00 | 0.01 | 0.01 | 42 | 1017.1 |
| 20260506222541 | 61 | 31 | 9.0 | 15.0 | 0.00 | 0.01 | 0.01 | 41 | 1017.1 |
| 20260506222040 | 62 | 45 | 10.0 | 15.0 | 0.00 | 0.01 | 0.01 | 41 | 1017.1 |
| 20260506221549 | 62 | 21 | 5.0 | 11.0 | 0.00 | 0.01 | 0.01 | 42 | 1017.1 |
| 20260506221040 | 61 | 23 | 4.0 | 11.0 | 0.00 | 0.01 | 0.01 | 40 | 1017.1 |
| 20260506220541 | 61 | 338 | 6.0 | 11.0 | 0.00 | 0.01 | 0.01 | 41 | 1017.1 |
| 20260506215541 | 61 | 25 | 6.0 | 13.0 | 0.00 | 0.01 | 0.01 | 44 | 1017.2 |
| 20260506215041 | 60 | 28 | 6.0 | 13.0 | 0.00 | 0.01 | 0.01 | 43 | 1017.2 |
| 20260506214549 | 60 | 19 | 4.0 | 13.0 | 0.00 | 0.01 | 0.01 | 43 | 1017.3 |
| 20260506214042 | 60 | 36 | 8.0 | 13.0 | 0.00 | 0.01 | 0.01 | 42 | 1017.4 |
| 20260506213540 | 61 | 22 | 8.0 | 13.0 | 0.00 | 0.01 | 0.01 | 43 | 1017.3 |
| 20260506213049 | 61 | 344 | 5.0 | 13.0 | 0.00 | 0.01 | 0.01 | 41 | 1017.4 |
| 20260506212540 | 60 | 331 | 6.0 | 13.0 | 0.00 | 0.01 | 0.01 | 42 | 1017.3 |
| 20260506212040 | 60 | 24 | 7.0 | 13.0 | 0.00 | 0.01 | 0.01 | 42 | 1017.3 |
| 20260506211556 | 60 | 24 | 9.0 | 13.0 | 0.00 | 0.01 | 0.01 | 42 | 1017.4 |
| 20260506211040 | 60 | 33 | 5.0 | 13.0 | 0.00 | 0.01 | 0.01 | 41 | 1017.5 |
| 20260506210540 | 60 | 23 | 7.0 | 13.0 | 0.00 | 0.01 | 0.01 | 42 | 1017.6 |
| 20260506210057 | 61 | 69 | 4.0 | 11.0 | 0.00 | 0.01 | 0.01 | 43 | 1017.6 |
| 20260506205540 | 60 | 34 | 6.0 | 11.0 | 0.00 | 0.01 | 0.01 | 42 | 1017.5 |
| 20260506205040 | 61 | 53 | 7.0 | 13.0 | 0.00 | 0.01 | 0.01 | 42 | 1017.6 |
| 20260506204558 | 61 | 9 | 7.0 | 13.0 | 0.00 | 0.01 | 0.01 | 42 | 1017.7 |
| 20260506204039 | 61 | 46 | 10.0 | 13.0 | 0.00 | 0.01 | 0.01 | 43 | 1017.8 |
| 20260506203540 | 61 | 15 | 7.0 | 14.0 | 0.00 | 0.01 | 0.01 | 44 | 1017.9 |
| 20260506203058 | 61 | 334 | 7.0 | 14.0 | 0.00 | 0.01 | 0.01 | 43 | 1017.9 |
| 20260506202543 | 60 | 309 | 8.0 | 13.0 | 0.00 | 0.01 | 0.01 | 44 | 1018.1 |
| 20260506202041 | 60 | 51 | 3.0 | 14.0 | 0.00 | 0.01 | 0.01 | 44 | 1018.1 |
| 20260506201553 | 60 | 107 | 7.0 | 14.0 | 0.00 | 0.01 | 0.01 | 43 | 1018.2 |
| 20260506201040 | 61 | 51 | 6.0 | 14.0 | 0.00 | 0.01 | 0.01 | 41 | 1018.3 |
| 20260506200540 | 60 | 34 | 4.0 | 16.0 | 0.00 | 0.01 | 0.01 | 44 | 1018.3 |
| 20260506200047 | 60 | 45 | 7.0 | 16.0 | 0.00 | 0.01 | 0.01 | 42 | 1018.4 |
| 20260506195540 | 59 | 32 | 6.0 | 15.0 | 0.00 | 0.01 | 0.01 | 44 | 1018.5 |
| 20260506195041 | 59 | 134 | 5.0 | 15.0 | 0.00 | 0.01 | 0.01 | 46 | 1018.6 |
| 20260506194552 | 59 | 36 | 7.0 | 15.0 | 0.00 | 0.01 | 0.01 | 44 | 1018.5 |
| 20260506194040 | 59 | 28 | 4.0 | 13.0 | 0.00 | 0.01 | 0.01 | 45 | 1018.7 |
| 20260506193539 | 59 | 24 | 7.0 | 13.0 | 0.00 | 0.01 | 0.01 | 43 | 1018.7 |
| 20260506193052 | 60 | 265 | 9.0 | 13.0 | 0.00 | 0.01 | 0.01 | 43 | 1018.5 |
| 20260506192540 | 59 | 178 | 6.0 | 15.0 | 0.00 | 0.01 | 0.01 | 44 | 1018.6 |
| 20260506192040 | 59 | 53 | 8.0 | 15.0 | 0.00 | 0.01 | 0.01 | 44 | 1018.6 |
| 20260506191548 | 59 | 128 | 7.0 | 14.0 | 0.00 | 0.01 | 0.01 | 46 | 1018.6 |
| 20260506191041 | 59 | 40 | 11.0 | 14.0 | 0.00 | 0.01 | 0.01 | 45 | 1018.6 |
| 20260506190544 | 58 | 348 | 8.0 | 13.0 | 0.00 | 0.01 | 0.01 | 46 | 1018.6 |
| 20260506190051 | 58 | 34 | 6.0 | 14.0 | 0.00 | 0.01 | 0.01 | 48 | 1018.7 |
| 20260506185540 | 58 | 48 | 8.0 | 14.0 | 0.00 | 0.01 | 0.01 | 48 | 1018.7 |
| 20260506185040 | 58 | 24 | 7.0 | 12.0 | 0.00 | 0.01 | 0.01 | 47 | 1018.7 |
| 20260506184550 | 58 | 105 | 7.0 | 14.0 | 0.00 | 0.01 | 0.01 | 47 | 1018.6 |
| 20260506184040 | 58 | 61 | 9.0 | 15.0 | 0.00 | 0.01 | 0.01 | 48 | 1018.8 |
| 20260506183543 | 58 | 39 | 6.0 | 15.0 | 0.00 | 0.01 | 0.01 | 49 | 1018.7 |
| 20260506183051 | 58 | 98 | 10.0 | 15.0 | 0.00 | 0.01 | 0.01 | 49 | 1018.8 |
| 20260506182540 | 58 | 20 | 9.0 | 14.0 | 0.00 | 0.01 | 0.01 | 49 | 1018.8 |
| 20260506182040 | 57 | 61 | 8.0 | 14.0 | 0.00 | 0.01 | 0.01 | 47 | 1018.9 |
| 20260506181600 | 57 | 21 | 9.0 | 14.0 | 0.00 | 0.01 | 0.01 | 48 | 1019.2 |
| 20260506181040 | 57 | 33 | 7.0 | 16.0 | 0.00 | 0.01 | 0.01 | 48 | 1019.2 |
| 20260506180541 | 56 | 26 | 9.0 | 16.0 | 0.00 | 0.01 | 0.01 | 48 | 1019.3 |
| 20260506180055 | 57 | 344 | 10.0 | 15.0 | 0.00 | 0.01 | 0.01 | 46 | 1019.4 |
| 20260506175540 | 57 | 24 | 9.0 | 15.0 | 0.00 | 0.01 | 0.01 | 51 | 1019.4 |
| 20260506175042 | 57 | 40 | 9.0 | 15.0 | 0.00 | 0.01 | 0.01 | 47 | 1019.5 |
| 20260506174549 | 57 | 50 | 8.0 | 14.0 | 0.00 | 0.01 | 0.01 | 49 | 1019.5 |
| 20260506174040 | 56 | 44 | 10.0 | 14.0 | 0.00 | 0.01 | 0.01 | 52 | 1019.6 |
| 20260506173542 | 56 | 49 | 6.0 | 14.0 | 0.00 | 0.01 | 0.01 | 52 | 1019.6 |
| 20260506173119 | 56 | 48 | 9.0 | 14.0 | 0.00 | 0.01 | 0.01 | 52 | 1019.7 |
| 20260506172540 | 56 | 93 | 9.0 | 14.0 | 0.00 | 0.01 | 0.01 | 52 | 1019.6 |
| 20260506172041 | 55 | 51 | 8.0 | 13.0 | 0.00 | 0.01 | 0.01 | 55 | 1019.6 |
| 20260506171553 | 55 | 17 | 11.0 | 13.0 | 0.00 | 0.01 | 0.01 | 56 | 1019.7 |
| 20260506171040 | 55 | 350 | 10.0 | 14.0 | 0.00 | 0.01 | 0.01 | 56 | 1019.6 |
| 20260506170540 | 55 | 27 | 10.0 | 14.0 | 0.00 | 0.01 | 0.01 | 56 | 1019.6 |
| 20260506170055 | 54 | 38 | 10.0 | 14.0 | 0.00 | 0.01 | 0.01 | 56 | 1019.6 |
| 20260506165543 | 54 | 34 | 10.0 | 14.0 | 0.00 | 0.01 | 0.01 | 56 | 1019.6 |
| 20260506165040 | 54 | 55 | 10.0 | 14.0 | 0.00 | 0.01 | 0.01 | 58 | 1019.5 |
| 20260506164549 | 55 | 50 | 9.0 | 13.0 | 0.00 | 0.01 | 0.01 | 58 | 1019.6 |
| 20260506164039 | 54 | 28 | 9.0 | 13.0 | 0.00 | 0.01 | 0.01 | 60 | 1019.7 |
| 20260506163544 | 54 | 34 | 9.0 | 14.0 | 0.00 | 0.01 | 0.01 | 62 | 1019.5 |
| 20260506163042 | 54 | 36 | 9.0 | 14.0 | 0.00 | 0.01 | 0.01 | 62 | 1019.3 |
| 20260506162542 | 53 | 31 | 10.0 | 14.0 | 0.00 | 0.01 | 0.01 | 63 | 1019.2 |
| 20260506162039 | 53 | 16 | 10.0 | 14.0 | 0.00 | 0.01 | 0.01 | 65 | 1019.2 |
| 20260506161550 | 53 | 51 | 10.0 | 14.0 | 0.00 | 0.01 | 0.01 | 64 | 1019.3 |
| 20260506161040 | 53 | 38 | 9.0 | 13.0 | 0.00 | 0.01 | 0.01 | 66 | 1019.4 |
| 20260506160540 | 52 | 16 | 8.0 | 13.0 | 0.00 | 0.01 | 0.01 | 68 | 1019.3 |
| 20260506160059 | 52 | 331 | 7.0 | 13.0 | 0.00 | 0.01 | 0.01 | 69 | 1019.7 |
| 20260506155539 | 52 | 351 | 9.0 | 13.0 | 0.00 | 0.01 | 0.01 | 70 | 1019.5 |
| 20260506155040 | 51 | 23 | 9.0 | 13.0 | 0.00 | 0.01 | 0.01 | 71 | 1019.5 |
| 20260506154552 | 51 | 23 | 9.0 | 13.0 | 0.00 | 0.01 | 0.01 | 71 | 1019.5 |
| 20260506154043 | 51 | 28 | 9.0 | 13.0 | 0.00 | 0.01 | 0.01 | 71 | 1019.5 |